Weather History for KMFE - June, 2014

Change the Weather History Date:

Monday, June 9, 2014

  Actual Average Record
Temperature  
Mean Temperature 87 °F 86 °F  
Max Temperature 96 °F 96 °F 102 °F (1942)
Min Temperature 77 °F 75 °F 66 °F (1969)
Degree Days  
Heating Degree Days 0 0  
Month to date heating degree days 0 0  
Since 1 June heating degree days 0 0  
Since 1 July heating degree days 883 579  
Cooling Degree Days 22 21  
Month to date cooling degree days 186 183  
Year to date cooling degree days 1242 1438  
Since 1 June cooling degree days 186 183  
Growing Degree Days 36 (Base 50)    
Moisture  
Dew Point 73 °F    
Average Humidity 64    
Maximum Humidity 85    
Minimum Humidity 43    
Precipitation  
Precipitation 0.00 in 0.08 in 0.44 in (1972)
Month to date precipitation 0.01 0.74  
Year to date precipitation 2.89 7.52  
Sea Level Pressure  
Sea Level Pressure 29.79 in    
Wind  
Wind Speed 16 mph (SE)    
Max Wind Speed 25 mph    
Max Gust Speed 33 mph    
Visibility 10 miles    
Events      
T = Trace of Precipitation, MM = Missing Value Source: NWS Daily Summary

Daily Weather History Graph

Daily Weather History Graph

Search for Another Location

Airport or City:

Trip Planner

Search our weather history database for the weather conditions in past years. The results will help you decide how hot, cold, wet, or windy it might be!

Date:

Astronomy

Jun. 09, 2014 Rise Set
Actual Time 6:40 AM CDT 8:24 PM CDT
Civil Twilight 6:14 AM CDT 8:50 PM CDT
Nautical Twilight 5:42 AM CDT 9:21 PM CDT
Astronomical Twilight 5:09 AM CDT 9:54 PM CDT
Moon 5:04 PM CDT (6/9) 3:48 AM CDT (6/9)
Length of Visible Light 14h 36m
Length of Day
13h 44m
Waxing Gibbous, 85% of the Moon is Illuminated
Jun 9
Waxing Gibbous
Jun 12
Full
Jun 19
Last Quarter
Jun 27
New
Jul 5
First Quarter

Hourly Weather History & Observations

Time (CDT) Temp. Heat Index Dew Point Humidity Pressure Visibility Wind Dir Wind Speed Gust Speed Precip Events Conditions
12:04 AM 78.8 °F - 73.4 °F 83% 29.85 in 10.0 mi SSE 8.1 mph - N/A   Mostly Cloudy
12:53 AM 79.0 °F - 73.0 °F 82% 29.83 in 10.0 mi SE 10.4 mph - N/A   Overcast
1:11 AM 78.8 °F - 73.4 °F 83% 29.83 in 10.0 mi SE 12.7 mph - N/A   Overcast
1:53 AM 78.1 °F - 73.9 °F 87% 29.82 in 10.0 mi SE 10.4 mph - N/A   Partly Cloudy
2:53 AM 78.1 °F - 73.9 °F 87% 29.80 in 10.0 mi SE 9.2 mph - N/A   Overcast
3:06 AM 78.8 °F - 73.4 °F 83% 29.80 in 10.0 mi SE 9.2 mph - N/A   Overcast
3:53 AM 79.0 °F - 73.0 °F 82% 29.81 in 10.0 mi SE 10.4 mph - N/A   Overcast
4:38 AM 78.8 °F - 73.4 °F 83% 29.79 in 10.0 mi SSE 10.4 mph - N/A   Overcast
4:53 AM 78.1 °F - 73.0 °F 84% 29.79 in 10.0 mi SSE 12.7 mph - N/A   Overcast
5:20 AM 78.8 °F - 73.4 °F 83% 29.79 in 10.0 mi SSE 12.7 mph - N/A   Mostly Cloudy
5:40 AM 78.8 °F - 73.4 °F 83% 29.79 in 10.0 mi SSE 10.4 mph - N/A   Overcast
5:53 AM 78.1 °F - 73.0 °F 84% 29.79 in 10.0 mi SSE 10.4 mph - N/A   Mostly Cloudy
6:45 AM 77.0 °F - 71.6 °F 83% 29.79 in 10.0 mi SSE 9.2 mph - N/A   Scattered Clouds
6:53 AM 77.0 °F - 72.0 °F 84% 29.79 in 10.0 mi SE 10.4 mph - N/A   Partly Cloudy
7:53 AM 78.1 °F - 73.0 °F 84% 29.81 in 10.0 mi SSE 10.4 mph - N/A   Clear
8:45 AM 80.6 °F 85.4 °F 73.4 °F 79% 29.80 in 10.0 mi SSE 13.8 mph 21.9 mph N/A   Mostly Cloudy
8:53 AM 82.0 °F 87.4 °F 73.0 °F 74% 29.80 in 10.0 mi SSE 18.4 mph 26.5 mph N/A   Mostly Cloudy
9:08 AM 82.4 °F 88.2 °F 73.4 °F 74% 29.80 in 10.0 mi SSE 17.3 mph 26.5 mph N/A   Scattered Clouds
9:53 AM 87.8 °F 93.8 °F 71.6 °F 58% 29.79 in 10.0 mi SE 21.9 mph 27.6 mph N/A   Partly Cloudy
10:53 AM 89.1 °F 93.7 °F 69.1 °F 52% 29.78 in 10.0 mi SSE 21.9 mph 29.9 mph N/A   Clear
11:53 AM 91.0 °F 96.6 °F 70.0 °F 50% 29.78 in 10.0 mi SSE 18.4 mph 27.6 mph N/A   Partly Cloudy
2:53 PM 95.0 °F 103.2 °F 71.6 °F 47% 29.73 in 10.0 mi SSE 21.9 mph 29.9 mph N/A   Partly Cloudy
3:53 PM 95.0 °F 103.2 °F 72.0 °F 47% 29.70 in 10.0 mi SSE 19.6 mph 28.8 mph N/A   Scattered Clouds
4:53 PM 93.0 °F 100.7 °F 72.0 °F 50% 29.71 in 10.0 mi SE 19.6 mph 26.5 mph N/A   Mostly Cloudy
5:53 PM 91.9 °F 98.4 °F 71.1 °F 50% 29.71 in 10.0 mi SE 23.0 mph - N/A   Clear
6:53 PM 89.1 °F 95.0 °F 71.1 °F 55% 29.72 in 10.0 mi SSE 19.6 mph 26.5 mph N/A   Clear
7:53 PM 86.0 °F 92.2 °F 72.0 °F 63% 29.73 in 10.0 mi SSE 12.7 mph - N/A   Clear
8:53 PM 84.0 °F 90.2 °F 73.0 °F 69% 29.75 in 10.0 mi ESE 16.1 mph 25.3 mph N/A   Partly Cloudy
9:17 PM 82.4 °F 88.2 °F 73.4 °F 74% 29.77 in 10.0 mi SE 13.8 mph - N/A   Mostly Cloudy
9:53 PM 82.9 °F 89.4 °F 73.9 °F 74% 29.80 in 10.0 mi SE 15.0 mph 23.0 mph N/A   Mostly Cloudy
10:53 PM 81.0 °F 86.2 °F 73.9 °F 79% 29.82 in 10.0 mi SE 13.8 mph - N/A   Mostly Cloudy
11:38 PM 80.6 °F 86.2 °F 75.2 °F 84% 29.83 in 10.0 mi SE 11.5 mph - N/A   Scattered Clouds
11:53 PM 81.0 °F 86.7 °F 75.0 °F 82% 29.82 in 10.0 mi SE 11.5 mph - N/A   Partly Cloudy